Date String (YYYY-MM-DD hh:mm:ss) UTC,Instrument flags,Ambient pressure (hPa),Sample flow (lpm),Bypass flow (lpm),Sample temperature (°C),Ambient temperature (°C),ASC tube jacket temperature (°C),LED temperature (°C),Box temperature (°C),Sample RH (%),Span deviation,Mass concentration (μg/m³),Mass concentration (μg/m³),Mass concentration (μg/m³)
DateTimeUTC,F1_M11,P_M11,Q1_M11,Q2_M11,T1_M11,T2_M11,T3_M11,T4_M11,T5_M11,U1_M11,ZSPAN_M11,X0_M11,X2_M11,X1_M11
2021-12-16 05:00:00,,0818.9,5.00,0.00,21.3,20.7,00.0,30.5,22.7,07.5,0000.0,0002.53,0000.46,0000.27
2021-12-16 05:01:00,,0819.0,5.00,0.00,21.3,20.5,00.0,30.5,22.6,07.5,0000.0,0002.56,0000.48,0000.28
2021-12-16 05:02:00,,0819.1,4.99,0.00,21.2,20.6,00.0,30.5,22.6,07.5,0000.0,0002.41,0000.49,0000.28
2021-12-16 05:03:00,,0818.9,5.00,0.00,21.3,21.5,00.0,30.5,23.0,07.5,0000.0,0002.05,0000.49,0000.27
2021-12-16 05:04:00,,0819.0,5.00,0.00,21.5,22.4,00.0,30.5,23.4,07.4,0000.0,0002.11,0000.50,0000.27
2021-12-16 05:05:00,,0819.1,5.00,0.00,21.7,22.9,00.0,30.6,23.7,07.3,0000.0,0002.16,0000.52,0000.27
2021-12-16 05:06:00,,0819.2,5.01,0.00,21.8,22.6,00.0,30.6,23.6,07.3,0000.0,0002.16,0000.53,0000.27
2021-12-16 05:07:00,,0819.2,5.00,0.00,21.7,22.2,00.0,30.6,23.4,07.3,0000.0,0003.21,0000.54,0000.27
2021-12-16 05:08:00,,0819.3,5.00,0.00,21.6,21.8,00.0,30.6,23.2,07.3,0000.0,0003.23,0000.55,0000.28
2021-12-16 05:09:00,,0819.3,4.99,0.00,21.6,21.5,00.0,30.6,23.1,07.3,0000.0,0003.08,0000.53,0000.27
2021-12-16 05:10:00,,0819.2,5.01,0.00,21.5,21.2,00.0,30.6,23.0,07.3,0000.0,0002.27,0000.52,0000.27
2021-12-16 05:11:00,,0819.3,4.98,0.00,21.4,21.0,00.0,30.6,22.9,07.3,0000.0,0002.15,0000.54,0000.27
2021-12-16 05:12:00,,0819.4,5.01,0.00,21.4,20.8,00.0,30.5,22.8,07.3,0000.0,0002.14,0000.52,0000.27
2021-12-16 05:13:00,,0819.5,5.00,0.00,21.3,20.6,00.0,30.5,22.7,07.4,0000.0,0002.12,0000.52,0000.27
2021-12-16 05:14:00,,0819.5,5.00,0.00,21.3,20.6,00.0,30.5,22.7,07.4,0000.0,0002.04,0000.50,0000.26
2021-12-16 05:15:00,,0819.4,5.00,0.00,21.4,21.2,00.0,30.5,23.0,07.4,0000.0,0002.08,0000.53,0000.27
2021-12-16 05:16:00,,0819.6,5.00,0.00,21.5,22.2,00.0,30.6,23.3,07.3,0000.0,0002.24,0000.52,0000.27
2021-12-16 05:17:00,,0819.7,4.99,0.00,21.7,22.9,00.0,30.6,23.7,07.3,0000.0,0002.29,0000.49,0000.27
2021-12-16 05:18:00,,0819.8,5.01,0.00,21.8,22.8,00.0,30.6,23.7,07.2,0000.0,0001.20,0000.48,0000.27
2021-12-16 05:19:00,,0819.9,5.00,0.00,21.8,22.2,00.0,30.7,23.5,07.2,0000.0,0001.15,0000.49,0000.27
2021-12-16 05:20:00,,0819.9,5.01,0.00,21.7,21.8,00.0,30.7,23.3,07.2,0000.0,0001.10,0000.47,0000.27
2021-12-16 05:21:00,,0819.9,5.00,0.00,21.6,21.5,00.0,30.6,23.2,07.2,0000.0,0001.12,0000.45,0000.26
2021-12-16 05:22:00,,0820.0,4.99,0.00,21.6,21.2,00.0,30.6,23.1,07.2,0000.0,0001.24,0000.46,0000.26
2021-12-16 05:23:00,,0820.0,5.01,0.00,21.5,21.1,00.0,30.6,23.0,07.3,0000.0,0001.27,0000.48,0000.26
2021-12-16 05:24:00,,0820.0,5.00,0.00,21.5,20.9,00.0,30.6,22.9,07.2,0000.0,0001.25,0000.47,0000.26
2021-12-16 05:25:00,,0820.2,4.99,0.00,21.4,20.8,00.0,30.6,22.9,07.3,0000.0,0001.27,0000.46,0000.26
2021-12-16 05:26:00,,0820.2,5.00,0.00,21.4,20.7,00.0,30.5,22.8,07.3,0000.0,0001.21,0000.43,0000.25
2021-12-16 05:27:00,,0820.3,5.00,0.00,21.3,20.6,00.0,30.5,22.7,07.3,0000.0,0001.06,0000.45,0000.26
2021-12-16 05:28:00,,0820.2,4.99,0.00,21.3,21.0,00.0,30.5,22.9,07.3,0000.0,0000.97,0000.44,0000.26
2021-12-16 05:29:00,,0820.3,5.00,0.00,21.5,21.9,00.0,30.6,23.3,07.3,0000.0,0000.94,0000.43,0000.26
2021-12-16 05:30:00,,0820.4,5.02,0.00,21.7,22.8,00.0,30.6,23.6,07.2,0000.0,0000.93,0000.43,0000.25
2021-12-16 05:31:00,,0820.4,4.99,0.00,21.8,23.0,00.0,30.7,23.8,07.1,0000.0,0001.07,0000.47,0000.25
2021-12-16 05:32:00,,0820.4,5.00,0.00,21.8,22.6,00.0,30.7,23.7,07.1,0000.0,0001.16,0000.51,0000.26
2021-12-16 05:33:00,,0820.5,4.99,0.00,21.8,22.2,00.0,30.7,23.5,07.1,0000.0,0001.14,0000.54,0000.27
2021-12-16 05:34:00,,0820.6,5.01,0.00,21.7,21.8,00.0,30.7,23.3,07.2,0000.0,0001.11,0000.52,0000.27
2021-12-16 05:35:00,,0820.6,4.99,0.00,21.7,21.5,00.0,30.7,23.3,07.2,0000.0,0001.17,0000.54,0000.27
2021-12-16 05:36:00,,0820.6,5.02,0.00,21.7,21.4,00.0,30.7,23.2,07.2,0000.0,0001.21,0000.55,0000.27
2021-12-16 05:37:00,,0820.5,4.99,0.00,21.6,21.2,00.0,30.7,23.2,07.2,0000.0,0001.30,0000.57,0000.27
2021-12-16 05:38:00,,0820.5,5.01,0.00,21.6,21.1,00.0,30.7,23.1,07.2,0000.0,0001.26,0000.57,0000.27
2021-12-16 05:39:00,,0820.3,5.00,0.00,21.6,21.0,00.0,30.7,23.0,07.2,0000.0,0001.30,0000.58,0000.26
2021-12-16 05:40:00,,0820.4,4.99,0.00,21.5,20.8,00.0,30.6,23.0,07.2,0000.0,0001.32,0000.59,0000.26
2021-12-16 05:41:00,,0820.3,5.01,0.00,21.5,20.8,00.0,30.6,22.9,07.2,0000.0,0001.37,0000.60,0000.26
2021-12-16 05:42:00,,0820.3,5.00,0.00,21.4,20.7,00.0,30.6,22.9,07.2,0000.0,0001.35,0000.60,0000.25
2021-12-16 05:43:00,,0820.2,5.01,0.00,21.5,21.2,00.0,30.6,23.1,07.2,0000.0,0001.27,0000.58,0000.25
2021-12-16 05:44:00,,0820.3,4.98,0.00,21.6,22.1,00.0,30.7,23.4,07.1,0000.0,0001.19,0000.55,0000.25
2021-12-16 05:45:00,,0820.4,5.01,0.00,21.8,22.9,00.0,30.7,23.8,07.1,0000.0,0001.40,0000.55,0000.25
2021-12-16 05:46:00,,0820.4,4.99,0.00,22.0,23.1,00.0,30.8,23.9,07.0,0000.0,0001.37,0000.55,0000.25
2021-12-16 05:47:00,,0820.2,5.00,0.00,22.0,22.6,00.0,30.8,23.8,07.0,0000.0,0001.38,0000.56,0000.26
2021-12-16 05:48:00,,0820.3,5.00,0.00,21.9,22.2,00.0,30.8,23.6,06.9,0000.0,0001.28,0000.53,0000.26
2021-12-16 05:49:00,,0820.4,5.00,0.00,21.9,21.9,00.0,30.8,23.5,07.0,0000.0,0001.27,0000.51,0000.25
2021-12-16 05:50:00,,0820.5,5.00,0.00,21.9,21.7,00.0,30.8,23.4,07.0,0000.0,0001.29,0000.51,0000.26
2021-12-16 05:51:00,,0820.5,5.00,0.00,21.8,21.5,00.0,30.8,23.4,07.0,0000.0,0001.34,0000.53,0000.26
2021-12-16 05:52:00,,0820.4,5.01,0.00,21.8,21.4,00.0,30.8,23.3,07.0,0000.0,0001.25,0000.50,0000.26
2021-12-16 05:53:00,,0820.3,4.99,0.00,21.8,21.3,00.0,30.8,23.3,07.0,0000.0,0001.14,0000.46,0000.26
2021-12-16 05:54:00,,0820.4,5.01,0.00,21.7,21.2,00.0,30.8,23.2,07.0,0000.0,0001.06,0000.43,0000.26
2021-12-16 05:55:00,,0820.4,4.99,0.00,21.7,21.0,00.0,30.8,23.1,07.0,0000.0,0000.96,0000.41,0000.26
2021-12-16 05:56:00,,0820.4,5.00,0.00,21.6,20.9,00.0,30.7,23.0,07.0,0000.0,0001.10,0000.41,0000.26
2021-12-16 05:57:00,,0820.3,5.01,0.00,21.5,20.8,00.0,30.7,23.0,07.1,0000.0,0002.06,0000.42,0000.26
2021-12-16 05:58:00,,0820.3,5.00,0.00,21.5,20.8,00.0,30.7,22.9,07.1,0000.0,0002.07,0000.40,0000.25
2021-12-16 05:59:00,,0820.2,4.99,0.00,21.5,21.3,00.0,30.7,23.1,07.0,0000.0,0002.10,0000.40,0000.25
